owner,sensor,date,latitude,longitude,vertical_datum,wind_speed,wind_to_direction,wind_speed_of_gust,qcFlag 
COMPS,ioos:station:USF.COMPS:C12:1,2017-07-01T00:05:00Z,27.4980,-83.7220,3.0,0.87,6.11,1.4,'1111122,1111122,1111122' 
COMPS,ioos:station:USF.COMPS:C12:1,2017-07-01T00:35:00Z,27.4980,-83.7220,3.0,0.71,42.35,1.13,'1111122,1111122,1111122' 
COMPS,ioos:station:USF.COMPS:C12:1,2017-07-01T01:05:00Z,27.4980,-83.7220,3.0,1.14,29.94,1.87,'1111122,1111122,1111122' 
COMPS,ioos:station:USF.COMPS:C12:1,2017-07-01T01:35:00Z,27.4980,-83.7220,3.0,0.8,27.15,1.32,'1111122,1111122,1111122' 
COMPS,ioos:station:USF.COMPS:C12:1,2017-07-01T02:05:00Z,27.4980,-83.7220,3.0,1.61,40.33,2.33,'1111122,1111122,1111122' 
COMPS,ioos:station:USF.COMPS:C12:1,2017-07-01T02:35:00Z,27.4980,-83.7220,3.0,1.93,41.06,2.84,'1111122,1111122,1111122' 
COMPS,ioos:station:USF.COMPS:C12:1,2017-07-01T03:05:00Z,27.4980,-83.7220,3.0,2.11,45.89,2.91,'1111122,1111122,1111122' 
COMPS,ioos:station:USF.COMPS:C12:1,2017-07-01T03:35:00Z,27.4980,-83.7220,3.0,2.24,52.41,3.07,'1111122,1111122,1111122' 
COMPS,ioos:station:USF.COMPS:C12:1,2017-07-01T04:05:00Z,27.4980,-83.7220,3.0,1.75,40.69,2.6,'1111122,1111122,1111122' 
COMPS,ioos:station:USF.COMPS:C12:1,2017-07-01T04:35:00Z,27.4980,-83.7220,3.0,1.55,33.12,2.2,'1111122,1111122,1111122' 
COMPS,ioos:station:USF.COMPS:C12:1,2017-07-01T05:05:00Z,27.4980,-83.7220,3.0,1.24,36.01,2.15,'1111122,1111122,1111122' 
COMPS,ioos:station:USF.COMPS:C12:1,2017-07-01T05:35:00Z,27.4980,-83.7220,3.0,1.81,47.5,2.67,'1111122,1111122,1111122' 
COMPS,ioos:station:USF.COMPS:C12:1,2017-07-01T06:05:00Z,27.4980,-83.7220,3.0,2.12,51.4,2.77,'1111122,1111122,1111122' 
COMPS,ioos:station:USF.COMPS:C12:1,2017-07-01T06:35:00Z,27.4980,-83.7220,3.0,1.98,63.97,2.93,'1111122,1111122,1111122' 
COMPS,ioos:station:USF.COMPS:C12:1,2017-07-01T07:05:00Z,27.4980,-83.7220,3.0,2.4,48.78,2.92,'1111122,1111122,1111122' 
COMPS,ioos:station:USF.COMPS:C12:1,2017-07-01T07:35:00Z,27.4980,-83.7220,3.0,2.2,58.91,3.31,'1111122,1111122,1111122' 
COMPS,ioos:station:USF.COMPS:C12:1,2017-07-01T08:05:00Z,27.4980,-83.7220,3.0,2.62,63.34,3.5,'1111122,1111122,1111122' 
COMPS,ioos:station:USF.COMPS:C12:1,2017-07-01T08:35:00Z,27.4980,-83.7220,3.0,3.59,59.49,4.8,'1111122,1111122,1111122' 
COMPS,ioos:station:USF.COMPS:C12:1,2017-07-01T09:05:00Z,27.4980,-83.7220,3.0,2.88,72.45,3.83,'1111122,1111122,1111122' 
COMPS,ioos:station:USF.COMPS:C12:1,2017-07-01T09:35:00Z,27.4980,-83.7220,3.0,2.61,81.22,3.59,'1111122,1111122,1111122' 
COMPS,ioos:station:USF.COMPS:C12:1,2017-07-01T10:05:00Z,27.4980,-83.7220,3.0,2.93,93.39,3.54,'1111122,1111122,1111122' 
COMPS,ioos:station:USF.COMPS:C12:1,2017-07-01T10:35:00Z,27.4980,-83.7220,3.0,2.77,89.73,4.01,'1111122,1111122,1111122' 
COMPS,ioos:station:USF.COMPS:C12:1,2017-07-01T11:05:00Z,27.4980,-83.7220,3.0,3.41,84.77,4.48,'1111122,1111122,1111122' 
COMPS,ioos:station:USF.COMPS:C12:1,2017-07-01T11:35:00Z,27.4980,-83.7220,3.0,3.44,85.34,4.2,'1111122,1111122,1111122' 
COMPS,ioos:station:USF.COMPS:C12:1,2017-07-01T12:05:00Z,27.4980,-83.7220,3.0,2.8,88.31,4.12,'1111122,1111122,1111122' 
COMPS,ioos:station:USF.COMPS:C12:1,2017-07-01T12:35:00Z,27.4980,-83.7220,3.0,3.47,85.93,4.2,'1111122,1111122,1111122' 
COMPS,ioos:station:USF.COMPS:C12:1,2017-07-01T13:05:00Z,27.4980,-83.7220,3.0,3.28,82.59,4.13,'1111122,1111122,1111122' 
COMPS,ioos:station:USF.COMPS:C12:1,2017-07-01T13:35:00Z,27.4980,-83.7220,3.0,2.58,67.93,3.31,'1111122,1111122,1111122' 
COMPS,ioos:station:USF.COMPS:C12:1,2017-07-01T14:05:00Z,27.4980,-83.7220,3.0,2.28,91.28,3.41,'1111122,1111122,1111122' 
COMPS,ioos:station:USF.COMPS:C12:1,2017-07-01T14:35:00Z,27.4980,-83.7220,3.0,2.27,75.61,2.94,'1111122,1111122,1111122' 
COMPS,ioos:station:USF.COMPS:C12:1,2017-07-01T15:05:00Z,27.4980,-83.7220,3.0,1.59,63.92,2.4,'1111122,1111122,1111122' 
COMPS,ioos:station:USF.COMPS:C12:1,2017-07-01T15:35:00Z,27.4980,-83.7220,3.0,1.99,51.6,3.67,'1111122,1111122,1111122' 
COMPS,ioos:station:USF.COMPS:C12:1,2017-07-01T16:05:00Z,27.4980,-83.7220,3.0,1.89,165.92,2.93,'1111122,1111122,1111122' 
COMPS,ioos:station:USF.COMPS:C12:1,2017-07-01T16:35:00Z,27.4980,-83.7220,3.0,1.43,191.25,2.21,'1111122,1111122,1111122' 
COMPS,ioos:station:USF.COMPS:C12:1,2017-07-01T17:05:00Z,27.4980,-83.7220,3.0,3.79,119.2,4.67,'1111122,1111122,1111122' 
COMPS,ioos:station:USF.COMPS:C12:1,2017-07-01T17:35:00Z,27.4980,-83.7220,3.0,2.17,137.82,3.42,'1111122,1111122,1111122' 
COMPS,ioos:station:USF.COMPS:C12:1,2017-07-01T18:05:00Z,27.4980,-83.7220,3.0,4.05,32.1,5.02,'1111122,1111122,1111122' 
COMPS,ioos:station:USF.COMPS:C12:1,2017-07-01T18:35:00Z,27.4980,-83.7220,3.0,1.9,33.81,3.53,'1111122,1111122,1111122' 
COMPS,ioos:station:USF.COMPS:C12:1,2017-07-01T19:05:00Z,27.4980,-83.7220,3.0,0.93,265.88,1.56,'1111122,1111122,1111122' 
COMPS,ioos:station:USF.COMPS:C12:1,2017-07-01T19:35:00Z,27.4980,-83.7220,3.0,1.28,282.08,1.94,'1111122,1111122,1111122' 
COMPS,ioos:station:USF.COMPS:C12:1,2017-07-01T20:05:00Z,27.4980,-83.7220,3.0,1.25,274.94,1.86,'1111122,1111122,1111122' 
COMPS,ioos:station:USF.COMPS:C12:1,2017-07-01T20:35:00Z,27.4980,-83.7220,3.0,0.68,272.97,1.61,'1111122,1111122,1111122' 
COMPS,ioos:station:USF.COMPS:C12:1,2017-07-01T21:05:00Z,27.4980,-83.7220,3.0,0.55,187.25,1.52,'1111122,1111122,1111122' 
COMPS,ioos:station:USF.COMPS:C12:1,2017-07-01T21:35:00Z,27.4980,-83.7220,3.0,0.9,196.64,1.57,'1111122,1111122,1111122' 
COMPS,ioos:station:USF.COMPS:C12:1,2017-07-01T22:05:00Z,27.4980,-83.7220,3.0,1.32,349.67,1.91,'1111122,1111122,1111122' 
COMPS,ioos:station:USF.COMPS:C12:1,2017-07-01T22:35:00Z,27.4980,-83.7220,3.0,0.89,324.56,1.49,'1111122,1111122,1111122' 
COMPS,ioos:station:USF.COMPS:C12:1,2017-07-01T23:05:00Z,27.4980,-83.7220,3.0,1.39,16.17,2.24,'1111122,1111122,1111122' 
COMPS,ioos:station:USF.COMPS:C12:1,2017-07-01T23:35:00Z,27.4980,-83.7220,3.0,1.69,23.05,2.21,'1111122,1111122,1111122' 
COMPS,ioos:station:USF.COMPS:C12:1,2017-07-02T00:05:00Z,27.4980,-83.7220,3.0,2.17,28.77,2.91,'1111122,1111122,1111122' 
COMPS,ioos:station:USF.COMPS:C12:1,2017-07-02T00:35:00Z,27.4980,-83.7220,3.0,1.7,32.61,2.41,'1111122,1111122,1111122' 
COMPS,ioos:station:USF.COMPS:C12:1,2017-07-02T01:05:00Z,27.4980,-83.7220,3.0,1.38,40.49,1.99,'1111122,1111122,1111122' 
COMPS,ioos:station:USF.COMPS:C12:1,2017-07-02T01:35:00Z,27.4980,-83.7220,3.0,1.68,54.3,2.35,'1111122,1111122,1111122' 
COMPS,ioos:station:USF.COMPS:C12:1,2017-07-02T02:05:00Z,27.4980,-83.7220,3.0,2.73,47.23,3.48,'1111122,1111122,1111122' 
COMPS,ioos:station:USF.COMPS:C12:1,2017-07-02T02:35:00Z,27.4980,-83.7220,3.0,2.26,58.43,3.34,'1111122,1111122,1111122' 
COMPS,ioos:station:USF.COMPS:C12:1,2017-07-02T03:05:00Z,27.4980,-83.7220,3.0,1.39,94.03,2.13,'1111122,1111122,1111122' 
COMPS,ioos:station:USF.COMPS:C12:1,2017-07-02T03:35:00Z,27.4980,-83.7220,3.0,1.78,80.81,2.35,'1111122,1111122,1111122' 
COMPS,ioos:station:USF.COMPS:C12:1,2017-07-02T04:05:00Z,27.4980,-83.7220,3.0,1.72,83.51,2.28,'1111122,1111122,1111122' 
COMPS,ioos:station:USF.COMPS:C12:1,2017-07-02T04:35:00Z,27.4980,-83.7220,3.0,1.44,108.15,2.09,'1111122,1111122,1111122' 
COMPS,ioos:station:USF.COMPS:C12:1,2017-07-02T05:05:00Z,27.4980,-83.7220,3.0,1.23,104.4,1.8,'1111122,1111122,1111122' 
COMPS,ioos:station:USF.COMPS:C12:1,2017-07-02T05:35:00Z,27.4980,-83.7220,3.0,1.46,75.0,2.1,'1111122,1111122,1111122' 
COMPS,ioos:station:USF.COMPS:C12:1,2017-07-02T06:05:00Z,27.4980,-83.7220,3.0,0.44,51.43,1.12,'1111122,1111122,1111122' 
COMPS,ioos:station:USF.COMPS:C12:1,2017-07-02T06:35:00Z,27.4980,-83.7220,3.0,0.61,52.46,1.44,'1111122,1111122,1111122' 
COMPS,ioos:station:USF.COMPS:C12:1,2017-07-02T07:05:00Z,27.4980,-83.7220,3.0,0.62,12.51,1.34,'1111122,1111122,1111122' 
COMPS,ioos:station:USF.COMPS:C12:1,2017-07-02T07:35:00Z,27.4980,-83.7220,3.0,0.7,355.02,1.28,'1111122,1111122,1111122' 
COMPS,ioos:station:USF.COMPS:C12:1,2017-07-02T08:05:00Z,27.4980,-83.7220,3.0,0.59,345.06,1.29,'1111122,1111122,1111122' 
COMPS,ioos:station:USF.COMPS:C12:1,2017-07-02T08:35:00Z,27.4980,-83.7220,3.0,2.93,50.12,4.42,'1111122,1111122,1111122' 
COMPS,ioos:station:USF.COMPS:C12:1,2017-07-02T09:05:00Z,27.4980,-83.7220,3.0,4.44,67.3,5.6,'1111122,1111122,1111122' 
COMPS,ioos:station:USF.COMPS:C12:1,2017-07-02T09:35:00Z,27.4980,-83.7220,3.0,2.65,77.43,4.12,'1111122,1111122,1111122' 
COMPS,ioos:station:USF.COMPS:C12:1,2017-07-02T10:05:00Z,27.4980,-83.7220,3.0,1.7,62.0,2.96,'1111122,1111122,1111122' 
COMPS,ioos:station:USF.COMPS:C12:1,2017-07-02T10:35:00Z,27.4980,-83.7220,3.0,1.12,32.3,1.54,'1111122,1111122,1111122' 
COMPS,ioos:station:USF.COMPS:C12:1,2017-07-02T11:05:00Z,27.4980,-83.7220,3.0,1.38,23.98,2.13,'1111122,1111122,1111122' 
COMPS,ioos:station:USF.COMPS:C12:1,2017-07-02T11:35:00Z,27.4980,-83.7220,3.0,1.92,18.64,2.53,'1111122,1111122,1111122' 
COMPS,ioos:station:USF.COMPS:C12:1,2017-07-02T12:05:00Z,27.4980,-83.7220,3.0,1.7,44.04,2.34,'1111122,1111122,1111122' 
COMPS,ioos:station:USF.COMPS:C12:1,2017-07-02T12:35:00Z,27.4980,-83.7220,3.0,1.49,25.7,2.26,'1111122,1111122,1111122' 
COMPS,ioos:station:USF.COMPS:C12:1,2017-07-02T13:05:00Z,27.4980,-83.7220,3.0,1.23,327.67,1.94,'1111122,1111122,1111122' 
COMPS,ioos:station:USF.COMPS:C12:1,2017-07-02T13:35:00Z,27.4980,-83.7220,3.0,1.2,22.3,1.78,'1111122,1111122,1111122' 
COMPS,ioos:station:USF.COMPS:C12:1,2017-07-02T14:05:00Z,27.4980,-83.7220,3.0,1.51,1.37,2.06,'1111122,1111122,1111122' 
COMPS,ioos:station:USF.COMPS:C12:1,2017-07-02T14:35:00Z,27.4980,-83.7220,3.0,1.54,4.28,2.3,'1111122,1111122,1111122' 
COMPS,ioos:station:USF.COMPS:C12:1,2017-07-02T15:05:00Z,27.4980,-83.7220,3.0,1.75,7.86,2.35,'1111122,1111122,1111122' 
COMPS,ioos:station:USF.COMPS:C12:1,2017-07-02T15:35:00Z,27.4980,-83.7220,3.0,1.13,20.22,2.08,'1111122,1111122,1111122' 
COMPS,ioos:station:USF.COMPS:C12:1,2017-07-02T16:05:00Z,27.4980,-83.7220,3.0,1.26,4.65,2.23,'1111122,1111122,1111122' 
COMPS,ioos:station:USF.COMPS:C12:1,2017-07-02T16:35:00Z,27.4980,-83.7220,3.0,1.39,10.84,2.14,'1111122,1111122,1111122' 
COMPS,ioos:station:USF.COMPS:C12:1,2017-07-02T17:05:00Z,27.4980,-83.7220,3.0,1.4,27.64,2.52,'1111122,1111122,1111122' 
COMPS,ioos:station:USF.COMPS:C12:1,2017-07-02T17:35:00Z,27.4980,-83.7220,3.0,0.87,65.92,2.11,'1111122,1111122,1111122' 
COMPS,ioos:station:USF.COMPS:C12:1,2017-07-02T18:05:00Z,27.4980,-83.7220,3.0,0.44,137.11,1.0,'1111122,1111122,1111122' 
COMPS,ioos:station:USF.COMPS:C12:1,2017-07-02T18:35:00Z,27.4980,-83.7220,3.0,0.43,13.3,1.1,'1111122,1111122,1111122' 
COMPS,ioos:station:USF.COMPS:C12:1,2017-07-02T19:05:00Z,27.4980,-83.7220,3.0,0.95,158.33,2.06,'1111122,1111122,1111122' 
COMPS,ioos:station:USF.COMPS:C12:1,2017-07-02T19:35:00Z,27.4980,-83.7220,3.0,1.67,185.31,2.87,'1111122,1111122,1111122' 
COMPS,ioos:station:USF.COMPS:C12:1,2017-07-02T20:05:00Z,27.4980,-83.7220,3.0,0.79,139.84,1.47,'1111122,1111122,1111122' 
COMPS,ioos:station:USF.COMPS:C12:1,2017-07-02T20:35:00Z,27.4980,-83.7220,3.0,1.37,101.2,2.14,'1111122,1111122,1111122' 
COMPS,ioos:station:USF.COMPS:C12:1,2017-07-02T21:05:00Z,27.4980,-83.7220,3.0,1.72,124.09,2.74,'1111122,1111122,1111122' 
COMPS,ioos:station:USF.COMPS:C12:1,2017-07-02T21:35:00Z,27.4980,-83.7220,3.0,1.9,136.2,3.23,'1111122,1111122,1111122' 
COMPS,ioos:station:USF.COMPS:C12:1,2017-07-02T22:05:00Z,27.4980,-83.7220,3.0,1.44,144.62,2.36,'1111122,1111122,1111122' 
COMPS,ioos:station:USF.COMPS:C12:1,2017-07-02T22:35:00Z,27.4980,-83.7220,3.0,1.06,153.65,1.94,'1111122,1111122,1111122' 
COMPS,ioos:station:USF.COMPS:C12:1,2017-07-02T23:05:00Z,27.4980,-83.7220,3.0,1.64,143.11,2.35,'1111122,1111122,1111122' 
COMPS,ioos:station:USF.COMPS:C12:1,2017-07-02T23:35:00Z,27.4980,-83.7220,3.0,1.71,166.03,4.26,'1111122,1111122,1111122' 
COMPS,ioos:station:USF.COMPS:C12:1,2017-07-03T00:05:00Z,27.4980,-83.7220,3.0,3.54,82.13,4.84,'1111122,1111122,1111122' 
COMPS,ioos:station:USF.COMPS:C12:1,2017-07-03T00:35:00Z,27.4980,-83.7220,3.0,2.93,101.28,4.12,'1111122,1111122,1111122' 
COMPS,ioos:station:USF.COMPS:C12:1,2017-07-03T01:05:00Z,27.4980,-83.7220,3.0,2.93,106.22,4.81,'1111122,1111122,1111122' 
COMPS,ioos:station:USF.COMPS:C12:1,2017-07-03T01:35:00Z,27.4980,-83.7220,3.0,2.66,106.53,4.1,'1111122,1111122,1111122' 
COMPS,ioos:station:USF.COMPS:C12:1,2017-07-03T02:05:00Z,27.4980,-83.7220,3.0,2.03,85.14,3.12,'1111122,1111122,1111122' 
COMPS,ioos:station:USF.COMPS:C12:1,2017-07-03T02:35:00Z,27.4980,-83.7220,3.0,1.61,73.22,2.29,'1111122,1111122,1111122' 
COMPS,ioos:station:USF.COMPS:C12:1,2017-07-03T03:05:00Z,27.4980,-83.7220,3.0,1.68,94.58,2.7,'1111122,1111122,1111122' 
COMPS,ioos:station:USF.COMPS:C12:1,2017-07-03T03:35:00Z,27.4980,-83.7220,3.0,1.51,103.0,2.32,'1111122,1111122,1111122' 
COMPS,ioos:station:USF.COMPS:C12:1,2017-07-03T04:05:00Z,27.4980,-83.7220,3.0,1.52,117.57,2.54,'1111122,1111122,1111122' 
COMPS,ioos:station:USF.COMPS:C12:1,2017-07-03T04:35:00Z,27.4980,-83.7220,3.0,1.07,46.16,2.12,'1111122,1111122,1111122' 
COMPS,ioos:station:USF.COMPS:C12:1,2017-07-03T05:05:00Z,27.4980,-83.7220,3.0,1.05,98.11,1.82,'1111122,1111122,1111122' 
COMPS,ioos:station:USF.COMPS:C12:1,2017-07-03T05:35:00Z,27.4980,-83.7220,3.0,1.16,98.22,1.73,'1111122,1111122,1111122' 
COMPS,ioos:station:USF.COMPS:C12:1,2017-07-03T06:05:00Z,27.4980,-83.7220,3.0,0.91,88.62,1.39,'1111122,1111122,1111122' 
COMPS,ioos:station:USF.COMPS:C12:1,2017-07-03T06:35:00Z,27.4980,-83.7220,3.0,1.15,99.45,1.55,'1111122,1111122,1111122' 
COMPS,ioos:station:USF.COMPS:C12:1,2017-07-03T07:05:00Z,27.4980,-83.7220,3.0,1.96,105.92,2.62,'1111122,1111122,1111122' 
COMPS,ioos:station:USF.COMPS:C12:1,2017-07-03T07:35:00Z,27.4980,-83.7220,3.0,2.31,96.47,3.25,'1111122,1111122,1111122' 
COMPS,ioos:station:USF.COMPS:C12:1,2017-07-03T08:05:00Z,27.4980,-83.7220,3.0,2.53,80.44,3.2,'1111122,1111122,1111122' 
COMPS,ioos:station:USF.COMPS:C12:1,2017-07-03T08:35:00Z,27.4980,-83.7220,3.0,2.61,79.18,3.64,'1111122,1111122,1111122' 
COMPS,ioos:station:USF.COMPS:C12:1,2017-07-03T09:05:00Z,27.4980,-83.7220,3.0,2.19,83.36,3.03,'1111122,1111122,1111122' 
COMPS,ioos:station:USF.COMPS:C12:1,2017-07-03T09:35:00Z,27.4980,-83.7220,3.0,1.33,93.71,2.1,'1111122,1111122,1111122' 
COMPS,ioos:station:USF.COMPS:C12:1,2017-07-03T10:05:00Z,27.4980,-83.7220,3.0,1.25,47.93,1.78,'1111122,1111122,1111122' 
COMPS,ioos:station:USF.COMPS:C12:1,2017-07-03T10:35:00Z,27.4980,-83.7220,3.0,1.14,357.88,2.06,'1111122,1111122,1111122' 
COMPS,ioos:station:USF.COMPS:C12:1,2017-07-03T11:05:00Z,27.4980,-83.7220,3.0,0.75,15.73,1.32,'1111122,1111122,1111122' 
COMPS,ioos:station:USF.COMPS:C12:1,2017-07-03T11:35:00Z,27.4980,-83.7220,3.0,1.0,318.32,1.65,'1111122,1111122,1111122' 
COMPS,ioos:station:USF.COMPS:C12:1,2017-07-03T12:05:00Z,27.4980,-83.7220,3.0,1.04,5.0,1.85,'1111122,1111122,1111122' 
COMPS,ioos:station:USF.COMPS:C12:1,2017-07-03T12:35:00Z,27.4980,-83.7220,3.0,1.4,326.14,2.25,'1111122,1111122,1111122' 
COMPS,ioos:station:USF.COMPS:C12:1,2017-07-03T13:05:00Z,27.4980,-83.7220,3.0,1.49,309.89,2.18,'1111122,1111122,1111122' 
COMPS,ioos:station:USF.COMPS:C12:1,2017-07-03T13:35:00Z,27.4980,-83.7220,3.0,2.12,324.91,3.54,'1111122,1111122,1111122' 
COMPS,ioos:station:USF.COMPS:C12:1,2017-07-03T14:05:00Z,27.4980,-83.7220,3.0,2.39,345.41,3.51,'1111122,1111122,1111122' 
COMPS,ioos:station:USF.COMPS:C12:1,2017-07-03T14:35:00Z,27.4980,-83.7220,3.0,2.82,356.55,3.66,'1111122,1111122,1111122' 
COMPS,ioos:station:USF.COMPS:C12:1,2017-07-03T15:05:00Z,27.4980,-83.7220,3.0,3.18,342.93,4.13,'1111122,1111122,1111122' 
COMPS,ioos:station:USF.COMPS:C12:1,2017-07-03T15:35:00Z,27.4980,-83.7220,3.0,3.26,11.08,4.2,'1111122,1111122,1111122' 
COMPS,ioos:station:USF.COMPS:C12:1,2017-07-03T16:05:00Z,27.4980,-83.7220,3.0,2.94,346.15,3.8,'1111122,1111122,1111122' 
COMPS,ioos:station:USF.COMPS:C12:1,2017-07-03T16:35:00Z,27.4980,-83.7220,3.0,3.2,321.82,4.36,'1111122,1111122,1111122' 
COMPS,ioos:station:USF.COMPS:C12:1,2017-07-03T17:05:00Z,27.4980,-83.7220,3.0,3.05,329.13,4.02,'1111122,1111122,1111122' 
COMPS,ioos:station:USF.COMPS:C12:1,2017-07-03T17:35:00Z,27.4980,-83.7220,3.0,3.08,312.43,3.97,'1111122,1111122,1111122' 
COMPS,ioos:station:USF.COMPS:C12:1,2017-07-03T18:05:00Z,27.4980,-83.7220,3.0,2.17,313.61,3.11,'1111122,1111122,1111122' 
COMPS,ioos:station:USF.COMPS:C12:1,2017-07-03T18:35:00Z,27.4980,-83.7220,3.0,1.32,313.16,2.32,'1111122,1111122,1111122' 
COMPS,ioos:station:USF.COMPS:C12:1,2017-07-03T19:05:00Z,27.4980,-83.7220,3.0,3.23,329.99,4.14,'1111122,1111122,1111122' 
COMPS,ioos:station:USF.COMPS:C12:1,2017-07-03T19:35:00Z,27.4980,-83.7220,3.0,2.37,300.73,3.25,'1111122,1111122,1111122' 
COMPS,ioos:station:USF.COMPS:C12:1,2017-07-03T20:05:00Z,27.4980,-83.7220,3.0,2.08,264.42,2.74,'1111122,1111122,1111122' 
COMPS,ioos:station:USF.COMPS:C12:1,2017-07-03T20:35:00Z,27.4980,-83.7220,3.0,1.39,275.21,2.06,'1111122,1111122,1111122' 
COMPS,ioos:station:USF.COMPS:C12:1,2017-07-03T21:05:00Z,27.4980,-83.7220,3.0,2.05,266.83,3.07,'1111122,1111122,1111122' 
COMPS,ioos:station:USF.COMPS:C12:1,2017-07-03T21:35:00Z,27.4980,-83.7220,3.0,3.22,125.7,4.14,'1111122,1111122,1111122' 
COMPS,ioos:station:USF.COMPS:C12:1,2017-07-03T22:05:00Z,27.4980,-83.7220,3.0,2.35,134.94,3.09,'1111122,1111122,1111122' 
COMPS,ioos:station:USF.COMPS:C12:1,2017-07-03T22:35:00Z,27.4980,-83.7220,3.0,2.99,128.29,3.89,'1111122,1111122,1111122' 
COMPS,ioos:station:USF.COMPS:C12:1,2017-07-03T23:05:00Z,27.4980,-83.7220,3.0,2.21,159.98,3.19,'1111122,1111122,1111122' 
COMPS,ioos:station:USF.COMPS:C12:1,2017-07-03T23:35:00Z,27.4980,-83.7220,3.0,2.19,165.3,3.0,'1111122,1111122,1111122' 
COMPS,ioos:station:USF.COMPS:C12:1,2017-07-04T00:05:00Z,27.4980,-83.7220,3.0,2.41,207.94,3.42,'1111122,1111122,1111122' 
COMPS,ioos:station:USF.COMPS:C12:1,2017-07-04T00:35:00Z,27.4980,-83.7220,3.0,2.44,184.87,3.34,'1111122,1111122,1111122' 
COMPS,ioos:station:USF.COMPS:C12:1,2017-07-04T01:05:00Z,27.4980,-83.7220,3.0,2.18,199.96,2.98,'1111122,1111122,1111122' 
COMPS,ioos:station:USF.COMPS:C12:1,2017-07-04T01:35:00Z,27.4980,-83.7220,3.0,1.63,213.0,2.67,'1111122,1111122,1111122' 
COMPS,ioos:station:USF.COMPS:C12:1,2017-07-04T02:05:00Z,27.4980,-83.7220,3.0,1.88,140.92,2.49,'1111122,1111122,1111122' 
COMPS,ioos:station:USF.COMPS:C12:1,2017-07-04T02:35:00Z,27.4980,-83.7220,3.0,1.93,143.31,2.75,'1111122,1111122,1111122' 
COMPS,ioos:station:USF.COMPS:C12:1,2017-07-04T03:05:00Z,27.4980,-83.7220,3.0,1.98,102.02,2.84,'1111122,1111122,1111122' 
COMPS,ioos:station:USF.COMPS:C12:1,2017-07-04T03:35:00Z,27.4980,-83.7220,3.0,1.39,104.38,2.03,'1111122,1111122,1111122' 
COMPS,ioos:station:USF.COMPS:C12:1,2017-07-04T04:05:00Z,27.4980,-83.7220,3.0,0.9,122.08,1.6,'1111122,1111122,1111122' 
COMPS,ioos:station:USF.COMPS:C12:1,2017-07-04T04:35:00Z,27.4980,-83.7220,3.0,0.81,140.09,1.33,'1111122,1111122,1111122' 
COMPS,ioos:station:USF.COMPS:C12:1,2017-07-04T05:05:00Z,27.4980,-83.7220,3.0,2.3,79.61,3.33,'1111122,1111122,1111122' 
COMPS,ioos:station:USF.COMPS:C12:1,2017-07-04T05:35:00Z,27.4980,-83.7220,3.0,3.18,66.87,4.4,'1111122,1111122,1111122' 
COMPS,ioos:station:USF.COMPS:C12:1,2017-07-04T06:05:00Z,27.4980,-83.7220,3.0,3.43,69.54,4.37,'1111122,1111122,1111122' 
COMPS,ioos:station:USF.COMPS:C12:1,2017-07-04T06:35:00Z,27.4980,-83.7220,3.0,4.05,67.97,5.26,'1111122,1111122,1111122' 
COMPS,ioos:station:USF.COMPS:C12:1,2017-07-04T07:05:00Z,27.4980,-83.7220,3.0,3.46,80.96,4.73,'1111122,1111122,1111122' 
COMPS,ioos:station:USF.COMPS:C12:1,2017-07-04T07:35:00Z,27.4980,-83.7220,3.0,3.3,66.6,5.43,'1111122,1111122,1111122' 
COMPS,ioos:station:USF.COMPS:C12:1,2017-07-04T08:05:00Z,27.4980,-83.7220,3.0,3.58,65.9,4.59,'1111122,1111122,1111122' 
COMPS,ioos:station:USF.COMPS:C12:1,2017-07-04T08:35:00Z,27.4980,-83.7220,3.0,4.06,69.42,5.51,'1111122,1111122,1111122' 
COMPS,ioos:station:USF.COMPS:C12:1,2017-07-04T09:05:00Z,27.4980,-83.7220,3.0,3.59,45.82,4.79,'1111122,1111122,1111122' 
COMPS,ioos:station:USF.COMPS:C12:1,2017-07-04T09:35:00Z,27.4980,-83.7220,3.0,3.37,44.92,4.3,'1111122,1111122,1111122' 
COMPS,ioos:station:USF.COMPS:C12:1,2017-07-04T10:05:00Z,27.4980,-83.7220,3.0,3.47,46.75,4.41,'1111122,1111122,1111122' 
COMPS,ioos:station:USF.COMPS:C12:1,2017-07-04T10:35:00Z,27.4980,-83.7220,3.0,3.81,50.91,4.85,'1111122,1111122,1111122' 
COMPS,ioos:station:USF.COMPS:C12:1,2017-07-04T11:05:00Z,27.4980,-83.7220,3.0,3.23,40.85,4.24,'1111122,1111122,1111122' 
COMPS,ioos:station:USF.COMPS:C12:1,2017-07-04T11:35:00Z,27.4980,-83.7220,3.0,2.89,60.1,3.9,'1111122,1111122,1111122' 
COMPS,ioos:station:USF.COMPS:C12:1,2017-07-04T12:05:00Z,27.4980,-83.7220,3.0,2.61,65.84,3.47,'1111122,1111122,1111122' 
COMPS,ioos:station:USF.COMPS:C12:1,2017-07-04T12:35:00Z,27.4980,-83.7220,3.0,1.54,110.59,2.68,'1111122,1111122,1111122' 
COMPS,ioos:station:USF.COMPS:C12:1,2017-07-04T13:05:00Z,27.4980,-83.7220,3.0,1.17,94.03,1.96,'1111122,1111122,1111122' 
COMPS,ioos:station:USF.COMPS:C12:1,2017-07-04T13:35:00Z,27.4980,-83.7220,3.0,2.51,58.15,3.51,'1111122,1111122,1111122' 
COMPS,ioos:station:USF.COMPS:C12:1,2017-07-04T14:05:00Z,27.4980,-83.7220,3.0,2.93,45.24,3.65,'1111122,1111122,1111122' 
COMPS,ioos:station:USF.COMPS:C12:1,2017-07-04T14:35:00Z,27.4980,-83.7220,3.0,3.02,35.13,4.07,'1111122,1111122,1111122' 
COMPS,ioos:station:USF.COMPS:C12:1,2017-07-04T15:05:00Z,27.4980,-83.7220,3.0,3.34,39.28,4.76,'1111122,1111122,1111122' 
COMPS,ioos:station:USF.COMPS:C12:1,2017-07-04T15:35:00Z,27.4980,-83.7220,3.0,3.66,40.42,4.83,'1111122,1111122,1111122' 
COMPS,ioos:station:USF.COMPS:C12:1,2017-07-04T16:05:00Z,27.4980,-83.7220,3.0,3.23,50.88,4.43,'1111122,1111122,1111122' 
COMPS,ioos:station:USF.COMPS:C12:1,2017-07-04T16:35:00Z,27.4980,-83.7220,3.0,2.74,46.41,4.21,'1111122,1111122,1111122' 
COMPS,ioos:station:USF.COMPS:C12:1,2017-07-04T17:05:00Z,27.4980,-83.7220,3.0,3.34,33.88,4.0,'1111122,1111122,1111122' 
COMPS,ioos:station:USF.COMPS:C12:1,2017-07-04T17:35:00Z,27.4980,-83.7220,3.0,3.46,36.98,4.63,'1111122,1111122,1111122' 
COMPS,ioos:station:USF.COMPS:C12:1,2017-07-04T18:05:00Z,27.4980,-83.7220,3.0,2.65,31.16,3.5,'1111122,1111122,1111122' 
COMPS,ioos:station:USF.COMPS:C12:1,2017-07-04T18:35:00Z,27.4980,-83.7220,3.0,2.71,52.97,3.92,'1111122,1111122,1111122' 
COMPS,ioos:station:USF.COMPS:C12:1,2017-07-04T19:05:00Z,27.4980,-83.7220,3.0,2.5,40.61,3.59,'1111122,1111122,1111122' 
COMPS,ioos:station:USF.COMPS:C12:1,2017-07-04T19:35:00Z,27.4980,-83.7220,3.0,1.93,8.53,2.91,'1111122,1111122,1111122' 
COMPS,ioos:station:USF.COMPS:C12:1,2017-07-04T20:05:00Z,27.4980,-83.7220,3.0,1.79,13.75,2.74,'1111122,1111122,1111122' 
COMPS,ioos:station:USF.COMPS:C12:1,2017-07-04T20:35:00Z,27.4980,-83.7220,3.0,1.87,9.95,2.94,'1111122,1111122,1111122' 
COMPS,ioos:station:USF.COMPS:C12:1,2017-07-04T21:05:00Z,27.4980,-83.7220,3.0,1.58,2.65,2.28,'1111122,1111122,1111122' 
COMPS,ioos:station:USF.COMPS:C12:1,2017-07-04T21:35:00Z,27.4980,-83.7220,3.0,0.76,49.35,1.61,'1111122,1111122,1111122' 
COMPS,ioos:station:USF.COMPS:C12:1,2017-07-04T22:05:00Z,27.4980,-83.7220,3.0,1.13,329.52,2.0,'1111122,1111122,1111122' 
COMPS,ioos:station:USF.COMPS:C12:1,2017-07-04T22:35:00Z,27.4980,-83.7220,3.0,1.18,8.39,2.12,'1111122,1111122,1111122' 
COMPS,ioos:station:USF.COMPS:C12:1,2017-07-04T23:05:00Z,27.4980,-83.7220,3.0,0.89,290.79,1.48,'1111122,1111122,1111122' 
COMPS,ioos:station:USF.COMPS:C12:1,2017-07-04T23:35:00Z,27.4980,-83.7220,3.0,2.08,251.5,3.11,'1111122,1111122,1111122' 
COMPS,ioos:station:USF.COMPS:C12:1,2017-07-05T00:05:00Z,27.4980,-83.7220,3.0,1.98,234.75,2.98,'1111122,1111122,1111122' 
COMPS,ioos:station:USF.COMPS:C12:1,2017-07-05T00:35:00Z,27.4980,-83.7220,3.0,1.4,227.28,2.24,'1111122,1111122,1111122' 
COMPS,ioos:station:USF.COMPS:C12:1,2017-07-05T01:05:00Z,27.4980,-83.7220,3.0,1.24,228.61,1.8,'1111122,1111122,1111122' 
COMPS,ioos:station:USF.COMPS:C12:1,2017-07-05T01:35:00Z,27.4980,-83.7220,3.0,0.39,100.07,1.25,'1111122,1111122,1111122' 
COMPS,ioos:station:USF.COMPS:C12:1,2017-07-05T02:05:00Z,27.4980,-83.7220,3.0,0.81,287.21,1.39,'1111122,1111122,1111122' 
COMPS,ioos:station:USF.COMPS:C12:1,2017-07-05T02:35:00Z,27.4980,-83.7220,3.0,1.09,271.84,2.07,'1111122,1111122,1111122' 
COMPS,ioos:station:USF.COMPS:C12:1,2017-07-05T03:05:00Z,27.4980,-83.7220,3.0,2.39,303.24,3.24,'1111122,1111122,1111122' 